Hourly Weather Ryabiivka

Today, 20 April, Tuesday

Time Temperature Precipitation Wind Pressure Humidity
00:00 +7°C° 0 mm 2 mps 734 mmHg 81%
01:00 +6°C° 0 mm 2 mps 733 mmHg 83%
02:00 +7°C° 0 mm 1 mps 733 mmHg 85%
03:00 +5°C° 0 mm 2 mps 733 mmHg 86%
04:00 +5°C° 0 mm 2 mps 733 mmHg 88%
05:00 +5°C° 0 mm 2 mps 733 mmHg 89%
06:00 +6°C° 0 mm 2 mps 733 mmHg 84%
07:00 +7°C° 0 mm 2 mps 733 mmHg 78%
08:00 +8°C° 0 mm 3 mps 733 mmHg 72%
09:00 +9°C° 0.3 mm 3 mps 733 mmHg 66%
10:00 +10°C° 0.3 mm 3 mps 732 mmHg 59%
11:00 +11°C° 0.3 mm 3 mps 732 mmHg 52%
12:00 +12°C° 0.6 mm 3 mps 732 mmHg 52%
13:00 +12°C° 0.6 mm 4 mps 731 mmHg 51%
14:00 +12°C° 0.6 mm 4 mps 731 mmHg 51%
15:00 +12°C° 0.5 mm 4 mps 731 mmHg 54%
16:00 +11°C° 0.5 mm 4 mps 731 mmHg 57%
17:00 +11°C° 0.5 mm 4 mps 731 mmHg 61%
18:00 +10°C° 0.2 mm 3 mps 731 mmHg 67%
19:00 +9°C° 0.2 mm 3 mps 731 mmHg 73%
20:00 +8°C° 0.2 mm 2 mps 731 mmHg 79%
21:00 +8°C° 0 mm 2 mps 731 mmHg 81%
22:00 +7°C° 0 mm 2 mps 732 mmHg 82%
23:00 +7°C° 0 mm 2 mps 732 mmHg 84%

Tomorrow, 21 April, Wednesday

Time Temperature Precipitation Wind Pressure Humidity
00:00 +7°C° 0 mm 2 mps 732 mmHg 86%
01:00 +6°C° 0 mm 2 mps 732 mmHg 87%
02:00 +6°C° 0 mm 2 mps 732 mmHg 89%
03:00 +6°C° 0 mm 2 mps 732 mmHg 89%
04:00 +5°C° 0 mm 2 mps 732 mmHg 90%
05:00 +5°C° 0 mm 2 mps 732 mmHg 90%
06:00 +6°C° 0 mm 2 mps 732 mmHg 86%
07:00 +7°C° 0 mm 2 mps 732 mmHg 82%
08:00 +8°C° 0 mm 2 mps 733 mmHg 77%
09:00 +9°C° 0.2 mm 2 mps 733 mmHg 75%
10:00 +10°C° 0.2 mm 2 mps 733 mmHg 72%
11:00 +10°C° 0.2 mm 3 mps 733 mmHg 69%
12:00 +11°C° 0.5 mm 3 mps 733 mmHg 65%
13:00 +12°C° 0.5 mm 3 mps 733 mmHg 60%
14:00 +13°C° 0.5 mm 4 mps 733 mmHg 55%
15:00 +13°C° 0.4 mm 4 mps 733 mmHg 56%
16:00 +13°C° 0.4 mm 4 mps 732 mmHg 57%
17:00 +13°C° 0.4 mm 3 mps 732 mmHg 57%
18:00 +12°C° 0.2 mm 3 mps 733 mmHg 64%
19:00 +10°C° 0.2 mm 3 mps 733 mmHg 71%
20:00 +9°C° 0.2 mm 3 mps 733 mmHg 78%
21:00 +9°C° 0.1 mm 3 mps 733 mmHg 80%
22:00 +9°C° 0.1 mm 3 mps 733 mmHg 82%
23:00 +8°C° 0.1 mm 3 mps 734 mmHg 84%

Day after tomorrow, 22 April, Thursday

Time Temperature Precipitation Wind Pressure Humidity
00:00 +8°C° 0 mm 3 mps 734 mmHg 84%
01:00 +7°C° 0 mm 3 mps 734 mmHg 85%
02:00 +7°C° 0 mm 3 mps 734 mmHg 86%
03:00 +7°C° 0 mm 3 mps 734 mmHg 85%
04:00 +5°C° 0 mm 3 mps 734 mmHg 85%
05:00 +5°C° 0 mm 3 mps 734 mmHg 84%
06:00 +8°C° 0 mm 3 mps 734 mmHg 80%
07:00 +8°C° 0 mm 4 mps 734 mmHg 77%
08:00 +10°C° 0 mm 4 mps 734 mmHg 73%
09:00 +10°C° 0.1 mm 5 mps 734 mmHg 70%
10:00 +12°C° 0.1 mm 5 mps 734 mmHg 67%
11:00 +13°C° 0.1 mm 5 mps 735 mmHg 64%
12:00 +13°C° 0.4 mm 5 mps 734 mmHg 67%
13:00 +12°C° 0.4 mm 5 mps 734 mmHg 71%
14:00 +10°C° 0.4 mm 5 mps 734 mmHg 74%
15:00 +12°C° 0.2 mm 5 mps 734 mmHg 71%
16:00 +13°C° 0.2 mm 4 mps 734 mmHg 68%
17:00 +13°C° 0.2 mm 4 mps 733 mmHg 65%
18:00 +11°C° 0.5 mm 4 mps 734 mmHg 72%
19:00 +9°C° 0.5 mm 5 mps 734 mmHg 80%
20:00 +7°C° 0.5 mm 5 mps 734 mmHg 88%
21:00 +6°C° 0.3 mm 5 mps 734 mmHg 89%
22:00 +6°C° 0.3 mm 4 mps 735 mmHg 90%
23:00 +5°C° 0.3 mm 4 mps 735 mmHg 91%

23 April, Friday

Time Temperature Precipitation Wind Pressure Humidity
00:00 +5°C° 0.3 mm 4 mps 735 mmHg 90%
01:00 +4°C° 0.3 mm 3 mps 735 mmHg 88%
02:00 +4°C° 0.3 mm 3 mps 735 mmHg 87%
03:00 +4°C° 0.1 mm 3 mps 735 mmHg 87%
04:00 +3°C° 0.1 mm 3 mps 735 mmHg 86%
05:00 +3°C° 0.1 mm 3 mps 736 mmHg 86%
06:00 +4°C° 0 mm 3 mps 736 mmHg 82%
07:00 +4°C° 0 mm 4 mps 736 mmHg 78%
08:00 +3°C° 0 mm 5 mps 737 mmHg 75%
09:00 +5°C° 0 mm 5 mps 737 mmHg 67%
10:00 +5°C° 0 mm 6 mps 737 mmHg 60%
11:00 +7°C° 0 mm 6 mps 737 mmHg 52%
12:00 +7°C° 0 mm 6 mps 737 mmHg 48%
13:00 +8°C° 0 mm 6 mps 737 mmHg 44%
14:00 +8°C° 0 mm 6 mps 737 mmHg 40%
15:00 +8°C° 0 mm 6 mps 737 mmHg 41%
16:00 +8°C° 0 mm 6 mps 737 mmHg 42%
17:00 +7°C° 0 mm 6 mps 737 mmHg 42%
18:00 +6°C° 0 mm 5 mps 737 mmHg 49%
19:00 +5°C° 0 mm 3 mps 737 mmHg 56%
20:00 +5°C° 0 mm 2 mps 737 mmHg 62%
21:00 +3°C° 0.2 mm 3 mps 737 mmHg 69%
22:00 +3°C° 0.2 mm 4 mps 737 mmHg 75%
23:00 +2°C° 0.2 mm 5 mps 737 mmHg 82%

24 April, Saturday

Time Temperature Precipitation Wind Pressure Humidity
00:00 +1°C° 0.7 mm 6 mps 737 mmHg 84%
01:00 +1°C° 0.7 mm 6 mps 737 mmHg 85%
02:00 -1°C° 0.7 mm 6 mps 737 mmHg 87%
03:00 -1°C° 0 mm 6 mps 737 mmHg 88%
04:00 -2°C° 0 mm 6 mps 738 mmHg 89%
05:00 -2°C° 0 mm 5 mps 738 mmHg 90%
06:00 -1°C° 0 mm 5 mps 738 mmHg 84%
07:00 0°C° 0 mm 5 mps 739 mmHg 79%
08:00 +1°C° 0 mm 6 mps 739 mmHg 73%
09:00 +2°C° 0 mm 6 mps 739 mmHg 65%
10:00 +3°C° 0 mm 6 mps 739 mmHg 58%
11:00 +4°C° 0 mm 6 mps 739 mmHg 50%
12:00 +5°C° 0 mm 6 mps 739 mmHg 48%
13:00 +5°C° 0 mm 6 mps 739 mmHg 45%
14:00 +7°C° 0 mm 6 mps 738 mmHg 43%
15:00 +7°C° 0 mm 6 mps 738 mmHg 42%
16:00 +7°C° 0 mm 6 mps 738 mmHg 42%
17:00 +7°C° 0 mm 5 mps 738 mmHg 42%
18:00 +6°C° 0 mm 4 mps 738 mmHg 48%
19:00 +5°C° 0 mm 3 mps 738 mmHg 54%
20:00 +5°C° 0 mm 2 mps 737 mmHg 60%
21:00 +4°C° 0 mm 3 mps 737 mmHg 62%
22:00 +4°C° 0 mm 3 mps 737 mmHg 63%
23:00 +4°C° 0 mm 3 mps 737 mmHg 65%

25 April, Sunday

Time Temperature Precipitation Wind Pressure Humidity
00:00 +3°C° 0 mm 4 mps 737 mmHg 71%
01:00 +3°C° 0 mm 4 mps 737 mmHg 78%
02:00 +3°C° 0 mm 4 mps 737 mmHg 84%
03:00 +3°C° 0.2 mm 4 mps 737 mmHg 87%
04:00 +1°C° 0.2 mm 4 mps 737 mmHg 89%
05:00 +1°C° 0.2 mm 4 mps 736 mmHg 91%
06:00 +3°C° 0.1 mm 4 mps 736 mmHg 85%
07:00 +3°C° 0.1 mm 4 mps 736 mmHg 79%
08:00 +4°C° 0.1 mm 4 mps 736 mmHg 72%
09:00 +5°C° 0 mm 3 mps 736 mmHg 65%
10:00 +5°C° 0 mm 3 mps 736 mmHg 59%
11:00 +7°C° 0 mm 3 mps 736 mmHg 52%
12:00 +7°C° 0 mm 3 mps 736 mmHg 50%
13:00 +8°C° 0 mm 3 mps 735 mmHg 48%
14:00 +8°C° 0 mm 2 mps 735 mmHg 46%
15:00 +8°C° 0 mm 2 mps 735 mmHg 45%
16:00 +8°C° 0 mm 2 mps 735 mmHg 44%
17:00 +10°C° 0 mm 1 mps 734 mmHg 43%
18:00 +7°C° 0.3 mm 2 mps 735 mmHg 59%
19:00 +4°C° 0.3 mm 3 mps 735 mmHg 75%
20:00 +1°C° 0.3 mm 4 mps 735 mmHg 91%
21:00 +2°C° 0.2 mm 3 mps 735 mmHg 90%
22:00 +3°C° 0.2 mm 2 mps 735 mmHg 90%
23:00 +3°C° 0.2 mm 2 mps 735 mmHg 90%
Show more